DW2099 Weather Reports


Display with metric or nautical units.
time (UTC)temp
F
wind
direction
speed
MPH
gust
MPH
rain 1hr
in
rain 24hr
in
rain mn
in
humidity
%
barometer
mb
20260506032516 77 293 1.0 4.0 0.00 0.00 0.00 88 1008.3
20260506031516 77 293 1.0 4.0 0.00 0.00 0.00 87 1008.2
20260506030516 77 315 1.0 4.0 0.00 0.00 0.00 87 1008.0
20260506025516 78 293 1.0 3.0 0.00 0.00 0.00 86 1007.8
20260506024516 78 293 1.0 3.0 0.00 0.00 0.00 86 1007.6
20260506023516 78 315 1.0 4.0 0.00 0.00 0.00 86 1007.7
20260506022516 78 293 2.0 4.0 0.00 0.00 0.00 85 1007.4
20260506021516 79 315 2.0 6.0 0.00 0.00 0.00 85 1007.0
20260506020516 79 315 2.0 5.0 0.00 0.00 0.00 84 1007.3
20260506015516 79 315 2.0 5.0 0.00 0.00 0.00 84 1007.1
20260506014516 80 315 1.0 6.0 0.00 0.00 0.00 83 1007.1
20260506013516 80 315 2.0 5.0 0.00 0.00 0.00 83 1007.0
20260506012516 81 293 1.0 4.0 0.00 0.00 0.00 82 1006.9
20260506011516 81 293 1.0 4.0 0.00 0.00 0.00 82 1006.9
20260506010536 81 315 2.0 5.0 0.00 0.00 0.00 82 1006.8
20260506005536 81 315 1.0 3.0 0.00 0.00 0.00 81 1006.5
20260506004516 82 293 1.0 6.0 0.00 0.00 0.00 80 1006.4
20260506003516 82 293 2.0 6.0 0.00 0.00 0.00 80 1006.3
20260506002516 82 315 2.0 7.0 0.00 0.00 0.00 79 1006.2
20260506001517 83 315 2.0 5.0 0.00 0.00 0.00 79 1006.0
20260506000516 83 315 1.0 4.0 0.00 0.00 0.00 78 1006.2
20260505235516 84 293 1.0 3.0 0.00 0.00 0.00 77 1006.0
20260505234516 84 315 2.0 6.0 0.00 0.00 0.00 76 1005.9
20260505233556 85 293 2.0 7.0 0.00 0.00 0.00 75 1005.9
20260505232516 85 293 1.0 8.0 0.00 0.00 0.00 74 1006.0
20260505231515 85 293 1.0 5.0 0.00 0.00 0.00 74 1006.0
20260505230536 85 315 1.0 7.0 0.00 0.00 0.00 73 1005.9
20260505225536 85 293 1.0 4.0 0.00 0.00 0.00 74 1006.0
20260505224516 85 293 2.0 6.0 0.00 0.00 0.00 74 1006.0
20260505223515 85 293 2.0 6.0 0.00 0.00 0.00 74 1005.8
20260505222515 85 270 1.0 3.0 0.00 0.00 0.00 74 1006.1
20260505221556 85 293 1.0 4.0 0.00 0.00 0.00 74 1006.0
20260505220517 85 293 2.0 5.0 0.00 0.00 0.00 74 1006.2
20260505215516 86 293 3.0 7.0 0.00 0.00 0.00 72 1006.3
20260505214518 85 338 1.0 3.0 0.00 0.00 0.00 74 1006.3
20260505213517 84 315 3.0 9.0 0.00 0.00 0.00 74 1006.3
20260505212518 84 315 3.0 6.0 0.00 0.00 0.00 74 1006.4
20260505211517 85 315 2.0 6.0 0.00 0.00 0.00 75 1006.6
20260505210517 85 270 1.0 6.0 0.00 0.00 0.00 74 1006.7
20260505205518 84 315 2.0 6.0 0.00 0.00 0.00 75 1007.0
20260505204517 84 270 2.0 6.0 0.00 0.00 0.00 75 1007.2
20260505203517 84 315 3.0 10.0 0.00 0.00 0.00 75 1007.3
20260505202517 84 90 2.0 4.0 0.00 0.00 0.00 76 1007.5
20260505201537 83 315 3.0 7.0 0.00 0.00 0.00 76 1007.5
20260505200517 84 293 2.0 6.0 0.00 0.00 0.00 76 1007.8
20260505195517 83 293 3.0 10.0 0.00 0.00 0.00 77 1007.9
20260505194518 82 293 3.0 6.0 0.00 0.00 0.00 78 1008.0
20260505193518 82 293 2.0 6.0 0.00 0.00 0.00 79 1008.3
20260505192538 82 315 3.0 7.0 0.00 0.00 0.00 79 1008.3
20260505191517 81 293 2.0 6.0 0.00 0.00 0.00 79 1008.5
20260505190517 81 315 1.0 5.0 0.00 0.00 0.00 80 1008.6
20260505185557 81 90 1.0 3.0 0.00 0.00 0.00 80 1008.7
20260505184517 81 90 2.0 12.0 0.00 0.00 0.00 80 1008.9
20260505183518 81 293 1.0 4.0 0.00 0.00 0.00 81 1008.9
20260505182517 80 293 2.0 5.0 0.00 0.00 0.00 81 1009.1
20260505181517 79 293 2.0 8.0 0.00 0.00 0.00 83 1009.2
20260505180517 79 90 3.0 10.0 0.00 0.00 0.00 83 1009.2
20260505175518 78 293 3.0 7.0 0.00 0.00 0.00 84 1009.4
20260505174538 78 68 3.0 8.0 0.00 0.00 0.00 85 1009.4
20260505173537 77 315 2.0 9.0 0.00 0.00 0.00 85 1009.4
20260505172517 77 293 1.0 4.0 0.00 0.00 0.00 86 1009.5
20260505171517 77 293 2.0 9.0 0.00 0.00 0.00 86 1009.4
20260505170517 77 293 1.0 4.0 0.00 0.00 0.00 87 1009.5
20260505165517 76 0.0 2.0 0.00 0.00 0.00 88 1009.5
20260505164537 76 68 2.0 6.0 0.00 0.00 0.00 88 1009.7
20260505163537 75 315 1.0 3.0 0.00 0.00 0.00 88 1009.7
20260505162517 75 315 1.0 7.0 0.00 0.00 0.00 89 1009.7
20260505161517 75 338 1.0 5.0 0.00 0.00 0.00 90 1009.7
20260505160517 74 293 2.0 9.0 0.00 0.00 0.00 90 1009.8
20260505152517 74 90 2.0 7.0 0.00 0.00 0.00 90 1009.6
20260505151517 74 113 1.0 6.0 0.00 0.00 0.00 90 1009.4
20260505150517 74 293 1.0 5.0 0.00 0.00 0.00 90 1009.4
20260505140517 73 270 1.0 6.0 0.00 0.00 0.00 90 1009.2
20260505124517 72 270 1.0 4.0 0.00 0.00 0.00 91 1008.4
20260505123517 72 293 2.0 6.0 0.00 0.00 0.00 91 1008.5
20260505122517 72 293 2.0 7.0 0.00 0.00 0.00 91 1008.5
20260505121516 72 315 1.0 4.0 0.00 0.00 0.00 91 1008.3
20260505120517 72 315 1.0 6.0 0.00 0.00 0.00 90 1008.1
20260505115517 71 293 2.0 7.0 0.00 0.00 0.00 90 1008.2
20260505114517 71 315 1.0 5.0 0.00 0.00 0.00 90 1008.4
20260505113516 71 293 2.0 4.0 0.00 0.00 0.00 90 1008.2
20260505112517 71 68 1.0 4.0 0.00 0.00 0.00 90 1008.2
20260505111557 71 315 1.0 4.0 0.00 0.00 0.00 89 1008.3
20260505110517 71 293 1.0 6.0 0.00 0.00 0.00 89 1008.1
20260505101517 71 45 1.0 13.0 0.00 0.00 0.00 89 1008.4
20260505100516 71 293 2.0 6.0 0.00 0.00 0.00 89 1008.3
20260505095517 71 293 1.0 4.0 0.00 0.00 0.00 89 1008.4
20260505094516 71 293 2.0 7.0 0.00 0.00 0.00 90 1008.4
20260505093516 71 315 2.0 8.0 0.00 0.00 0.00 90 1008.5
20260505092517 70 293 1.0 4.0 0.00 0.00 0.00 90 1008.6
20260505091516 70 270 1.0 4.0 0.00 0.00 0.00 90 1008.6
20260505090516 70 315 1.0 3.0 0.00 0.00 0.00 90 1008.5
20260505085516 70 315 1.0 10.0 0.00 0.00 0.00 90 1008.5
20260505084516 71 315 2.0 5.0 0.00 0.00 0.00 89 1008.9
20260505083516 71 338 2.0 7.0 0.00 0.00 0.00 89 1008.7
20260505082516 71 45 2.0 9.0 0.00 0.00 0.00 89 1008.9
20260505081516 71 293 2.0 9.0 0.00 0.00 0.00 89 1009.1
20260505080557 71 315 1.0 4.0 0.00 0.00 0.00 89 1009.3
20260505075556 71 293 1.0 6.0 0.00 0.00 0.00 89 1009.3
20260505074516 71 270 1.0 5.0 0.00 0.00 0.00 89 1009.3
20260505073517 71 293 2.0 6.0 0.00 0.00 0.00 89 1009.4
20260505072516 71 293 3.0 9.0 0.00 0.00 0.00 89 1009.5
20260505071516 71 315 2.0 5.0 0.00 0.00 0.00 89 1009.6
20260505070557 71 293 3.0 9.0 0.00 0.00 0.00 89 1009.8
20260505065516 71 293 2.0 6.0 0.00 0.00 0.00 88 1009.9
20260505064516 71 293 3.0 9.0 0.00 0.00 0.00 88 1010.1
20260505063536 71 293 3.0 9.0 0.00 0.00 0.00 88 1010.1
20260505062516 71 315 2.0 7.0 0.00 0.00 0.00 88 1010.2
20260505061516 71 23 3.0 9.0 0.00 0.00 0.00 88 1010.3
20260505060516 71 315 1.0 4.0 0.00 0.00 0.00 88 1010.1
20260505055516 71 315 2.0 8.0 0.00 0.00 0.00 88 1010.0
20260505054516 71 315 2.0 6.0 0.00 0.00 0.00 88 1009.9
20260505053536 71 293 2.0 5.0 0.00 0.00 0.00 88 1010.0
20260505052516 71 315 2.0 4.0 0.00 0.00 0.00 87 1009.9
20260505051516 71 293 2.0 8.0 0.00 0.00 0.00 87 1010.1
20260505050516 71 293 2.0 6.0 0.00 0.00 0.00 87 1010.0
20260505041516 72 315 3.0 7.0 0.00 0.00 0.00 85 1010.3
20260505040516 72 293 2.0 8.0 0.00 0.00 0.00 84 1010.3
20260505035516 72 315 3.0 7.0 0.00 0.00 0.00 84 1010.3
20260505034516 73 293 3.0 9.0 0.00 0.00 0.00 84 1010.1
20260505033516 73 293 4.0 9.0 0.00 0.00 0.00 83 1010.2